HODOYOSHI-4

Last updated on Sat Sep 12 2026 00:02:46 GMT+0000 (Coordinated Universal Time)

1 40011U 14033B 26254.56685784 .00000293 00000+0 37158-4 0 9996 2 40011 97.5476 75.2503 0024309 22.4717 337.7559 14.88301869661650
UTC large
Height (km)
Speed (km/s)
/
Latitude / Longitude
Inclination (degrees)
Orbital Period (minutes)
Azimuth
Elevation
Range (km)
Doppler Factor

Next 0 passes for location: London (51.5072 / 0.1276)

No passes found over London.
HODOYOSHI-4